Time,TemperatureF,DewpointF,PressureIn,WindDirection,WindDirectionDegrees,WindSpeedMPH,WindSpeedGustMPH,Humidity,HourlyPrecipIn,Conditions,Clouds,dailyrainin,SoftwareType,DateUTC
2013-01-23 00:05:00,8.1,-1.2,30.44,ESE,110,9.0,11.0,65,0.00,,,0.00,Wunderground v.1.15,2013-01-23 05:05:00,
2013-01-23 00:10:00,8.0,-1.3,30.44,NW,313,8.0,11.0,65,0.00,,,0.00,Wunderground v.1.15,2013-01-23 05:10:00,
2013-01-23 00:15:00,8.0,-1.3,30.44,NE,56,9.0,11.0,65,0.00,,,0.00,Wunderground v.1.15,2013-01-23 05:15:00,
2013-01-23 00:20:00,7.9,-1.4,30.44,NNW,347,8.0,8.0,65,0.00,,,0.00,Wunderground v.1.15,2013-01-23 05:20:00,
2013-01-23 00:25:00,7.8,-1.2,30.44,North,8,7.0,10.0,66,0.00,,,0.00,Wunderground v.1.15,2013-01-23 05:25:00,
2013-01-23 00:30:00,7.8,-1.2,30.44,NNW,347,7.0,10.0,66,0.00,,,0.00,Wunderground v.1.15,2013-01-23 05:30:00,
2013-01-23 00:35:00,7.8,-1.2,30.44,NNE,27,7.0,16.0,66,0.00,,,0.00,Wunderground v.1.15,2013-01-23 05:35:00,
2013-01-23 00:40:00,7.8,-1.2,30.44,ENE,71,8.0,8.0,66,0.00,,,0.00,Wunderground v.1.15,2013-01-23 05:40:00,
2013-01-23 00:45:00,7.8,-1.2,30.44,East,100,7.0,9.0,66,0.00,,,0.00,Wunderground v.1.15,2013-01-23 05:45:00,
2013-01-23 00:55:00,7.8,-1.2,30.44,NNW,339,7.0,8.0,66,0.00,,,0.00,Wunderground v.1.15,2013-01-23 05:55:00,
2013-01-23 01:05:00,7.9,-1.1,30.44,North,350,8.0,8.0,66,0.00,,,0.00,Wunderground v.1.15,2013-01-23 06:05:00,
2013-01-23 01:10:00,7.9,-1.1,30.44,NE,41,7.0,7.0,66,0.00,,,0.00,Wunderground v.1.15,2013-01-23 06:10:00,
2013-01-23 01:15:00,7.9,-1.1,30.44,NNW,334,7.0,21.0,66,0.00,,,0.00,Wunderground v.1.15,2013-01-23 06:15:00,
2013-01-23 01:20:00,7.9,-0.8,30.44,NNW,333,7.0,21.0,67,0.00,,,0.00,Wunderground v.1.15,2013-01-23 06:20:00,
2013-01-23 01:30:00,8.0,-0.7,30.44,NNW,334,7.0,21.0,67,0.00,,,0.00,Wunderground v.1.15,2013-01-23 06:30:00,
2013-01-23 01:35:00,8.0,-0.7,30.43,South,184,8.0,21.0,67,0.00,,,0.00,Wunderground v.1.15,2013-01-23 06:35:00,
2013-01-23 01:40:00,8.0,-0.7,30.44,South,176,8.0,21.0,67,0.00,,,0.00,Wunderground v.1.15,2013-01-23 06:40:00,
2013-01-23 01:45:00,8.1,-0.6,30.44,NW,311,7.0,21.0,67,0.00,,,0.00,Wunderground v.1.15,2013-01-23 06:45:00,
2013-01-23 01:50:00,8.1,-0.6,30.44,WNW,284,7.0,21.0,67,0.00,,,0.00,Wunderground v.1.15,2013-01-23 06:50:00,
2013-01-23 02:00:00,8.1,-0.6,30.44,NNW,342,7.0,21.0,67,0.00,,,0.00,Wunderground v.1.15,2013-01-23 07:00:00,
2013-01-23 02:10:00,8.1,-0.3,30.43,ENE,58,8.0,8.0,68,0.00,,,0.00,Wunderground v.1.15,2013-01-23 07:10:00,
2013-01-23 02:15:00,8.1,-0.3,30.43,NNE,20,7.0,21.0,68,0.00,,,0.00,Wunderground v.1.15,2013-01-23 07:15:00,
2013-01-23 02:20:00,8.1,-0.3,30.43,North,11,7.0,7.0,68,0.00,,,0.00,Wunderground v.1.15,2013-01-23 07:20:00,
2013-01-23 02:25:00,8.1,-0.3,30.43,NW,309,6.0,21.0,68,0.00,,,0.00,Wunderground v.1.15,2013-01-23 07:25:00,
2013-01-23 02:30:00,8.1,-0.3,30.43,NE,56,6.0,6.0,68,0.00,,,0.00,Wunderground v.1.15,2013-01-23 07:30:00,
2013-01-23 02:35:00,8.1,-0.3,30.42,NNW,332,7.0,11.0,68,0.00,,,0.00,Wunderground v.1.15,2013-01-23 07:35:00,
2013-01-23 02:40:00,8.2,-0.2,30.43,NNW,347,9.0,21.0,68,0.00,,,0.00,Wunderground v.1.15,2013-01-23 07:40:00,
2013-01-23 02:50:00,8.1,0.0,30.42,NW,313,10.0,10.0,69,0.00,,,0.00,Wunderground v.1.15,2013-01-23 07:50:00,
2013-01-23 02:55:00,8.0,0.2,30.42,NNW,339,9.0,21.0,70,0.00,,,0.00,Wunderground v.1.15,2013-01-23 07:55:00,
2013-01-23 03:00:00,7.9,0.1,30.42,SSE,150,9.0,9.0,70,0.00,,,0.00,Wunderground v.1.15,2013-01-23 08:00:00,
2013-01-23 03:10:00,7.9,0.1,30.42,NW,312,10.0,10.0,70,0.00,,,0.00,Wunderground v.1.15,2013-01-23 08:10:00,
2013-01-23 03:15:00,8.0,0.5,30.42,NW,317,10.0,10.0,71,0.00,,,0.00,Wunderground v.1.15,2013-01-23 08:15:00,
2013-01-23 03:20:00,7.9,0.4,30.42,ENE,66,9.0,10.0,71,0.00,,,0.00,Wunderground v.1.15,2013-01-23 08:20:00,
2013-01-23 03:30:00,7.9,0.7,30.42,NNW,335,10.0,11.0,72,0.00,,,0.00,Wunderground v.1.15,2013-01-23 08:30:00,
2013-01-23 03:35:00,7.8,0.6,30.43,NNE,19,9.0,11.0,72,0.00,,,0.00,Wunderground v.1.15,2013-01-23 08:35:00,
2013-01-23 03:40:00,7.8,0.6,30.43,NW,316,9.0,9.0,72,0.00,,,0.00,Wunderground v.1.15,2013-01-23 08:40:00,
2013-01-23 03:50:00,7.8,0.9,30.43,ESE,103,8.0,11.0,73,0.00,,,0.00,Wunderground v.1.15,2013-01-23 08:50:00,
2013-01-23 03:55:00,7.9,1.0,30.43,NNW,328,9.0,12.0,73,0.00,,,0.00,Wunderground v.1.15,2013-01-23 08:55:00,
2013-01-23 04:00:00,8.0,1.1,30.43,NNE,16,9.0,9.0,73,0.00,,,0.00,Wunderground v.1.15,2013-01-23 09:00:00,
2013-01-23 04:10:00,8.3,1.1,30.42,NW,311,10.0,17.0,72,0.00,,,0.00,Wunderground v.1.15,2013-01-23 09:10:00,
2013-01-23 04:15:00,8.5,1.3,30.42,East,96,10.0,17.0,72,0.00,,,0.00,Wunderground v.1.15,2013-01-23 09:15:00,
2013-01-23 04:25:00,8.8,1.0,30.42,NNW,333,12.0,17.0,70,0.00,,,0.00,Wunderground v.1.15,2013-01-23 09:25:00,
2013-01-23 04:30:00,8.9,1.1,30.42,West,272,12.0,12.0,70,0.00,,,0.00,Wunderground v.1.15,2013-01-23 09:30:00,
2013-01-23 04:35:00,9.1,1.3,30.41,NW,325,11.0,14.0,70,0.00,,,0.00,Wunderground v.1.15,2013-01-23 09:35:00,
2013-01-23 04:45:00,9.2,1.1,30.42,NNW,328,10.0,17.0,69,0.00,,,0.00,Wunderground v.1.15,2013-01-23 09:45:00,
2013-01-23 04:50:00,9.3,1.2,30.41,NW,324,9.0,17.0,69,0.00,,,0.00,Wunderground v.1.15,2013-01-23 09:50:00,
2013-01-23 04:55:00,9.4,1.0,30.42,SE,133,10.0,17.0,68,0.00,,,0.00,Wunderground v.1.15,2013-01-23 09:55:00,
2013-01-23 05:05:00,9.5,1.1,30.41,NE,56,9.0,17.0,68,0.00,,,0.00,Wunderground v.1.15,2013-01-23 10:05:00,
2013-01-23 05:10:00,9.6,1.2,30.41,West,266,9.0,17.0,68,0.00,,,0.00,Wunderground v.1.15,2013-01-23 10:10:00,
2013-01-23 05:15:00,9.6,0.8,30.41,NNE,12,9.0,17.0,67,0.00,,,0.00,Wunderground v.1.15,2013-01-23 10:15:00,
2013-01-23 05:25:00,9.7,0.6,30.41,ENE,71,10.0,13.0,66,0.00,,,0.00,Wunderground v.1.15,2013-01-23 10:25:00,
2013-01-23 05:30:00,9.7,0.6,30.41,NW,325,9.0,17.0,66,0.00,,,0.00,Wunderground v.1.15,2013-01-23 10:30:00,
2013-01-23 05:35:00,9.7,0.6,30.41,North,6,8.0,17.0,66,0.00,,,0.00,Wunderground v.1.15,2013-01-23 10:35:00,
2013-01-23 05:40:00,9.8,0.4,30.41,SSE,166,8.0,8.0,65,0.00,,,0.00,Wunderground v.1.15,2013-01-23 10:40:00,
2013-01-23 05:50:00,9.8,0.0,30.41,West,281,8.0,17.0,64,0.00,,,0.00,Wunderground v.1.15,2013-01-23 10:50:00,
2013-01-23 05:55:00,9.8,0.0,30.41,ESE,120,9.0,17.0,64,0.00,,,0.00,Wunderground v.1.15,2013-01-23 10:55:00,
2013-01-23 06:00:00,9.9,0.1,30.41,NNW,334,8.0,8.0,64,0.00,,,0.00,Wunderground v.1.15,2013-01-23 11:00:00,
2013-01-23 06:10:00,10.0,0.6,30.41,SSE,158,6.0,6.0,65,0.00,,,0.00,Wunderground v.1.15,2013-01-23 11:10:00,
2013-01-23 06:20:00,10.0,0.2,30.41,West,260,8.0,17.0,64,0.00,,,0.00,Wunderground v.1.15,2013-01-23 11:20:00,
2013-01-23 06:35:00,10.1,0.3,30.41,NNE,16,10.0,17.0,64,0.00,,,0.00,Wunderground v.1.15,2013-01-23 11:35:00,
2013-01-23 06:40:00,10.1,0.0,30.41,NNW,347,10.0,10.0,63,0.00,,,0.00,Wunderground v.1.15,2013-01-23 11:40:00,
2013-01-23 06:50:00,10.1,0.0,30.41,NNE,32,9.0,17.0,63,0.00,,,0.00,Wunderground v.1.15,2013-01-23 11:50:00,
2013-01-23 07:00:00,10.3,0.2,30.41,NNW,330,7.0,7.0,63,0.00,,,0.00,Wunderground v.1.15,2013-01-23 12:00:00,
2013-01-23 07:10:00,10.3,0.2,30.41,NNW,330,8.0,8.0,63,0.00,,,0.00,Wunderground v.1.15,2013-01-23 12:10:00,
2013-01-23 07:20:00,10.3,0.5,30.41,NW,316,7.0,11.0,64,0.00,,,0.00,Wunderground v.1.15,2013-01-23 12:20:00,
2013-01-23 07:25:00,10.4,0.3,30.41,SE,143,8.0,11.0,63,0.00,,,0.00,Wunderground v.1.15,2013-01-23 12:25:00,
2013-01-23 07:30:00,10.4,0.3,30.41,ESE,110,8.0,8.0,63,0.00,,,0.00,Wunderground v.1.15,2013-01-23 12:30:00,
2013-01-23 07:35:00,10.4,0.3,30.41,NE,37,7.0,19.0,63,0.00,,,0.00,Wunderground v.1.15,2013-01-23 12:35:00,
2013-01-23 07:40:00,10.5,0.7,30.40,NW,318,8.0,19.0,64,0.00,,,0.00,Wunderground v.1.15,2013-01-23 12:40:00,
2013-01-23 07:45:00,10.5,0.4,30.40,SSW,193,8.0,19.0,63,0.00,,,0.00,Wunderground v.1.15,2013-01-23 12:45:00,
2013-01-23 07:50:00,10.5,0.7,30.40,NNW,337,8.0,8.0,64,0.00,,,0.00,Wunderground v.1.15,2013-01-23 12:50:00,
2013-01-23 08:00:00,10.6,0.8,30.40,SE,132,9.0,19.0,64,0.00,,,0.00,Wunderground v.1.15,2013-01-23 13:00:00,
2013-01-23 08:10:00,10.7,1.2,30.41,NNW,330,6.0,19.0,65,0.00,,,0.00,Wunderground v.1.15,2013-01-23 13:10:00,
2013-01-23 08:15:00,10.7,0.9,30.41,NW,317,6.0,19.0,64,0.00,,,0.00,Wunderground v.1.15,2013-01-23 13:15:00,
2013-01-23 08:20:00,10.7,0.9,30.40,ESE,115,7.0,7.0,64,0.00,,,0.00,Wunderground v.1.15,2013-01-23 13:20:00,
2013-01-23 08:25:00,10.7,0.9,30.40,WNW,301,7.0,19.0,64,0.00,,,0.00,Wunderground v.1.15,2013-01-23 13:25:00,
2013-01-23 08:35:00,10.9,1.4,30.39,WNW,297,6.0,19.0,65,0.00,,,0.00,Wunderground v.1.15,2013-01-23 13:35:00,
2013-01-23 08:45:00,10.9,1.1,30.38,WNW,283,7.0,19.0,64,0.00,,,0.00,Wunderground v.1.15,2013-01-23 13:45:00,
2013-01-23 08:50:00,11.0,1.2,30.39,WNW,300,8.0,19.0,64,0.00,,,0.00,Wunderground v.1.15,2013-01-23 13:50:00,
2013-01-23 08:55:00,11.1,1.3,30.39,NW,311,9.0,19.0,64,0.00,,,0.00,Wunderground v.1.15,2013-01-23 13:55:00,
2013-01-23 09:00:00,11.1,1.3,30.40,North,352,10.0,19.0,64,0.00,,,0.00,Wunderground v.1.15,2013-01-23 14:00:00,
2013-01-23 09:05:00,11.2,1.4,30.40,NNW,333,11.0,19.0,64,0.00,,,0.00,Wunderground v.1.15,2013-01-23 14:05:00,
2013-01-23 09:10:00,11.4,1.6,30.40,NW,321,11.0,11.0,64,0.00,,,0.00,Wunderground v.1.15,2013-01-23 14:10:00,
2013-01-23 09:20:00,11.6,1.4,30.39,North,358,12.0,19.0,63,0.00,,,0.00,Wunderground v.1.15,2013-01-23 14:20:00,
2013-01-23 09:25:00,11.7,1.2,30.39,NW,326,11.0,19.0,62,0.00,,,0.00,Wunderground v.1.15,2013-01-23 14:25:00,
2013-01-23 09:35:00,11.7,1.5,30.39,NW,319,8.0,19.0,63,0.00,,,0.00,Wunderground v.1.15,2013-01-23 14:35:00,
2013-01-23 09:40:00,11.8,1.6,30.39,WNW,290,9.0,19.0,63,0.00,,,0.00,Wunderground v.1.15,2013-01-23 14:40:00,
2013-01-23 09:45:00,11.9,1.7,30.39,WNW,298,10.0,19.0,63,0.00,,,0.00,Wunderground v.1.15,2013-01-23 14:45:00,
2013-01-23 09:50:00,11.9,1.7,30.38,WNW,290,11.0,11.0,63,0.00,,,0.00,Wunderground v.1.15,2013-01-23 14:50:00,
2013-01-23 09:55:00,12.1,1.9,30.39,East,91,11.0,15.0,63,0.00,,,0.00,Wunderground v.1.15,2013-01-23 14:55:00,
2013-01-23 10:00:00,12.1,2.2,30.39,NW,311,11.0,14.0,64,0.00,,,0.00,Wunderground v.1.15,2013-01-23 15:00:00,
2013-01-23 10:10:00,12.4,2.2,30.39,East,89,10.0,10.0,63,0.00,,,0.00,Wunderground v.1.15,2013-01-23 15:10:00,
2013-01-23 10:15:00,12.4,2.2,30.39,WNW,302,9.0,10.0,63,0.00,,,0.00,Wunderground v.1.15,2013-01-23 15:15:00,
2013-01-23 10:25:00,12.5,1.9,30.38,NW,306,10.0,11.0,62,0.00,,,0.00,Wunderground v.1.15,2013-01-23 15:25:00,
2013-01-23 10:30:00,12.7,2.5,30.38,WNW,295,10.0,10.0,63,0.00,,,0.00,Wunderground v.1.15,2013-01-23 15:30:00,
2013-01-23 10:35:00,12.9,2.7,30.39,West,260,10.0,10.0,63,0.00,,,0.00,Wunderground v.1.15,2013-01-23 15:35:00,
2013-01-23 10:40:00,13.0,2.4,30.38,NNW,347,11.0,11.0,62,0.00,,,0.00,Wunderground v.1.15,2013-01-23 15:40:00,
2013-01-23 10:45:00,13.0,2.4,30.38,WNW,290,10.0,11.0,62,0.00,,,0.00,Wunderground v.1.15,2013-01-23 15:45:00,
2013-01-23 10:50:00,13.1,2.5,30.38,WNW,294,9.0,12.0,62,0.00,,,0.00,Wunderground v.1.15,2013-01-23 15:50:00,
2013-01-23 10:55:00,13.2,2.6,30.38,NNW,334,10.0,13.0,62,0.00,,,0.00,Wunderground v.1.15,2013-01-23 15:55:00,
2013-01-23 11:00:00,13.3,2.7,30.38,North,356,11.0,11.0,62,0.00,,,0.00,Wunderground v.1.15,2013-01-23 16:00:00,
2013-01-23 11:10:00,13.7,2.4,30.38,NW,305,9.0,23.0,60,0.00,,,0.00,Wunderground v.1.15,2013-01-23 16:10:00,
2013-01-23 11:15:00,13.9,2.9,30.38,WNW,299,9.0,23.0,61,0.00,,,0.00,Wunderground v.1.15,2013-01-23 16:15:00,
2013-01-23 11:20:00,13.9,2.2,30.38,WNW,302,10.0,23.0,59,0.00,,,0.00,Wunderground v.1.15,2013-01-23 16:20:00,
2013-01-23 11:25:00,13.9,2.2,30.38,NW,304,13.0,23.0,59,0.00,,,0.00,Wunderground v.1.15,2013-01-23 16:25:00,
2013-01-23 11:30:00,14.1,1.6,30.38,WNW,300,12.0,23.0,57,0.00,,,0.00,Wunderground v.1.15,2013-01-23 16:30:00,
2013-01-23 11:40:00,14.2,2.1,30.37,NW,313,14.0,14.0,58,0.00,,,0.00,Wunderground v.1.15,2013-01-23 16:40:00,
2013-01-23 11:45:00,14.2,1.7,30.38,NE,51,13.0,15.0,57,0.00,,,0.00,Wunderground v.1.15,2013-01-23 16:45:00,
2013-01-23 11:55:00,14.2,2.1,30.37,WNW,294,14.0,23.0,58,0.00,,,0.00,Wunderground v.1.15,2013-01-23 16:55:00,
2013-01-23 12:00:00,14.3,2.6,30.36,NW,323,12.0,12.0,59,0.00,,,0.00,Wunderground v.1.15,2013-01-23 17:00:00,
2013-01-23 12:10:00,14.4,1.9,30.36,SSE,150,11.0,11.0,57,0.00,,,0.00,Wunderground v.1.15,2013-01-23 17:10:00,
2013-01-23 12:15:00,14.5,2.4,30.35,NNW,329,11.0,11.0,58,0.00,,,0.00,Wunderground v.1.15,2013-01-23 17:15:00,
2013-01-23 12:20:00,14.7,1.8,30.35,NW,322,9.0,9.0,56,0.00,,,0.00,Wunderground v.1.15,2013-01-23 17:20:00,
2013-01-23 12:25:00,14.7,1.8,30.35,NW,316,11.0,16.0,56,0.00,,,0.00,Wunderground v.1.15,2013-01-23 17:25:00,
2013-01-23 12:35:00,14.6,2.1,30.34,NNW,339,14.0,14.0,57,0.00,,,0.00,Wunderground v.1.15,2013-01-23 17:35:00,
2013-01-23 12:40:00,14.7,2.2,30.34,NW,312,13.0,13.0,57,0.00,,,0.00,Wunderground v.1.15,2013-01-23 17:40:00,
2013-01-23 12:45:00,14.8,2.7,30.34,East,96,11.0,15.0,58,0.00,,,0.00,Wunderground v.1.15,2013-01-23 17:45:00,
2013-01-23 12:55:00,14.8,3.4,30.33,East,84,11.0,22.0,60,0.00,,,0.00,Wunderground v.1.15,2013-01-23 17:55:00,
2013-01-23 13:00:00,14.9,2.8,30.33,NW,306,10.0,10.0,58,0.00,,,0.00,Wunderground v.1.15,2013-01-23 18:00:00,
2013-01-23 13:05:00,15.0,2.5,30.32,WNW,300,9.0,22.0,57,0.00,,,0.00,Wunderground v.1.15,2013-01-23 18:05:00,
2013-01-23 13:15:00,15.1,1.0,30.31,NNW,329,9.0,11.0,53,0.00,,,0.00,Wunderground v.1.15,2013-01-23 18:15:00,
2013-01-23 13:20:00,15.2,1.5,30.31,North,8,9.0,9.0,54,0.00,,,0.00,Wunderground v.1.15,2013-01-23 18:20:00,
2013-01-23 13:25:00,15.4,1.7,30.30,NNW,334,8.0,12.0,54,0.00,,,0.00,Wunderground v.1.15,2013-01-23 18:25:00,
2013-01-23 13:35:00,15.5,1.8,30.29,WNW,296,10.0,22.0,54,0.00,,,0.00,Wunderground v.1.15,2013-01-23 18:35:00,
2013-01-23 13:40:00,15.7,2.0,30.29,NW,315,9.0,22.0,54,0.00,,,0.00,Wunderground v.1.15,2013-01-23 18:40:00,
2013-01-23 13:50:00,15.9,2.6,30.28,NW,314,10.0,22.0,55,0.00,,,0.00,Wunderground v.1.15,2013-01-23 18:50:00,
2013-01-23 13:55:00,16.2,3.6,30.28,NNW,330,9.0,22.0,57,0.00,,,0.00,Wunderground v.1.15,2013-01-23 18:55:00,
2013-01-23 14:00:00,16.0,3.8,30.28,NW,312,11.0,12.0,58,0.00,,,0.00,Wunderground v.1.15,2013-01-23 19:00:00,
2013-01-23 14:10:00,16.1,4.6,30.28,NNW,332,11.0,17.0,60,0.00,,,0.00,Wunderground v.1.15,2013-01-23 19:10:00,
2013-01-23 14:15:00,16.1,5.0,30.28,NW,323,11.0,17.0,61,0.00,,,0.00,Wunderground v.1.15,2013-01-23 19:15:00,
2013-01-23 14:25:00,16.4,5.3,30.27,WNW,300,10.0,13.0,61,0.00,,,0.00,Wunderground v.1.15,2013-01-23 19:25:00,
2013-01-23 14:30:00,16.6,5.8,30.27,NNW,330,11.0,14.0,62,0.00,,,0.00,Wunderground v.1.15,2013-01-23 19:30:00,
2013-01-23 14:40:00,16.7,6.6,30.26,NW,322,10.0,18.0,64,0.00,,,0.00,Wunderground v.1.15,2013-01-23 19:40:00,
2013-01-23 14:45:00,16.7,6.6,30.27,NW,324,9.0,18.0,64,0.00,,,0.00,Wunderground v.1.15,2013-01-23 19:45:00,
2013-01-23 14:50:00,16.6,6.9,30.27,SSE,147,10.0,18.0,65,0.00,,,0.00,Wunderground v.1.15,2013-01-23 19:50:00,
2013-01-23 14:55:00,16.6,6.9,30.26,East,84,11.0,18.0,65,0.00,,,0.00,Wunderground v.1.15,2013-01-23 19:55:00,
2013-01-23 15:00:00,16.5,7.1,30.26,WNW,300,12.0,18.0,66,0.00,,,0.00,Wunderground v.1.15,2013-01-23 20:00:00,
2013-01-23 15:05:00,16.6,7.5,30.26,WNW,300,12.0,18.0,67,0.00,,,0.00,Wunderground v.1.15,2013-01-23 20:05:00,
2013-01-23 15:15:00,16.7,7.6,30.25,ENE,77,12.0,13.0,67,0.00,,,0.00,Wunderground v.1.15,2013-01-23 20:15:00,
2013-01-23 15:20:00,16.8,8.1,30.25,SE,144,11.0,11.0,68,0.00,,,0.00,Wunderground v.1.15,2013-01-23 20:20:00,
2013-01-23 15:25:00,17.0,8.3,30.25,NW,311,9.0,18.0,68,0.00,,,0.00,Wunderground v.1.15,2013-01-23 20:25:00,
2013-01-23 15:30:00,16.9,8.5,30.24,East,93,10.0,10.0,69,0.00,,,0.00,Wunderground v.1.15,2013-01-23 20:30:00,
2013-01-23 15:35:00,17.0,8.6,30.25,SE,131,11.0,11.0,69,0.00,,,0.00,Wunderground v.1.15,2013-01-23 20:35:00,
2013-01-23 15:45:00,17.0,8.6,30.25,NW,313,10.0,12.0,69,0.00,,,0.00,Wunderground v.1.15,2013-01-23 20:45:00,
2013-01-23 15:50:00,16.8,8.4,30.25,NW,325,11.0,18.0,69,0.00,,,0.00,Wunderground v.1.15,2013-01-23 20:50:00,
2013-01-23 15:55:00,16.9,8.5,30.25,WNW,300,11.0,18.0,69,0.00,,,0.00,Wunderground v.1.15,2013-01-23 20:55:00,
2013-01-23 16:00:00,17.0,8.6,30.25,NW,316,11.0,12.0,69,0.00,,,0.00,Wunderground v.1.15,2013-01-23 21:00:00,
2013-01-23 16:10:00,17.1,8.7,30.25,NW,312,10.0,11.0,69,0.00,,,0.00,Wunderground v.1.15,2013-01-23 21:10:00,
2013-01-23 16:20:00,17.0,8.9,30.24,NNW,328,11.0,14.0,70,0.00,,,0.00,Wunderground v.1.15,2013-01-23 21:20:00,
2013-01-23 16:25:00,17.0,9.2,30.23,NW,313,12.0,14.0,71,0.00,,,0.00,Wunderground v.1.15,2013-01-23 21:25:00,
2013-01-23 16:30:00,17.2,9.4,30.23,NNE,20,11.0,11.0,71,0.00,,,0.00,Wunderground v.1.15,2013-01-23 21:30:00,
2013-01-23 16:35:00,17.3,9.8,30.23,SE,138,9.0,11.0,72,0.00,,,0.00,Wunderground v.1.15,2013-01-23 21:35:00,
2013-01-23 16:40:00,17.3,9.5,30.23,NNW,347,9.0,9.0,71,0.00,,,0.00,Wunderground v.1.15,2013-01-23 21:40:00,
2013-01-23 16:45:00,17.3,9.8,30.23,NNW,341,9.0,10.0,72,0.00,,,0.00,Wunderground v.1.15,2013-01-23 21:45:00,
2013-01-23 16:55:00,17.3,10.4,30.23,WNW,292,10.0,11.0,74,0.00,,,0.00,Wunderground v.1.15,2013-01-23 21:55:00,
2013-01-23 17:05:00,17.3,10.7,30.24,NNW,340,10.0,17.0,75,0.00,,,0.00,Wunderground v.1.15,2013-01-23 22:05:00,
2013-01-23 17:10:00,17.3,10.7,30.23,NNW,331,10.0,10.0,75,0.00,,,0.00,Wunderground v.1.15,2013-01-23 22:10:00,
2013-01-23 17:15:00,17.3,11.0,30.23,NW,317,9.0,12.0,76,0.00,,,0.00,Wunderground v.1.15,2013-01-23 22:15:00,
2013-01-23 17:20:00,17.3,11.0,30.24,ESE,120,10.0,10.0,76,0.00,,,0.00,Wunderground v.1.15,2013-01-23 22:20:00,
2013-01-23 17:30:00,17.2,11.2,30.23,NW,316,10.0,17.0,77,0.00,,,0.00,Wunderground v.1.15,2013-01-23 22:30:00,
2013-01-23 17:35:00,17.1,11.4,30.23,NW,322,12.0,17.0,78,0.00,,,0.00,Wunderground v.1.15,2013-01-23 22:35:00,
2013-01-23 17:40:00,17.1,11.7,30.22,NW,311,12.0,17.0,79,0.00,,,0.00,Wunderground v.1.15,2013-01-23 22:40:00,
2013-01-23 17:45:00,17.1,11.7,30.22,WNW,300,11.0,17.0,79,0.00,,,0.00,Wunderground v.1.15,2013-01-23 22:45:00,
2013-01-23 17:50:00,17.1,12.0,30.21,NW,316,9.0,17.0,80,0.00,,,0.00,Wunderground v.1.15,2013-01-23 22:50:00,
2013-01-23 18:00:00,17.1,11.7,30.21,NW,314,8.0,9.0,79,0.00,,,0.00,Wunderground v.1.15,2013-01-23 23:00:00,
2013-01-23 18:10:00,17.2,11.8,30.21,NW,304,8.0,8.0,79,0.00,,,0.00,Wunderground v.1.15,2013-01-23 23:10:00,
2013-01-23 18:20:00,17.2,11.5,30.21,NW,323,7.0,7.0,78,0.00,,,0.00,Wunderground v.1.15,2013-01-23 23:20:00,
2013-01-23 18:25:00,17.3,11.6,30.21,NW,311,7.0,9.0,78,0.00,,,0.00,Wunderground v.1.15,2013-01-23 23:25:00,
2013-01-23 18:30:00,17.3,11.0,30.21,NW,312,8.0,8.0,76,0.00,,,0.00,Wunderground v.1.15,2013-01-23 23:30:00,
2013-01-23 18:40:00,17.5,10.3,30.21,WNW,295,9.0,17.0,73,0.00,,,0.00,Wunderground v.1.15,2013-01-23 23:40:00,
2013-01-23 18:45:00,17.6,10.1,30.21,NW,311,10.0,17.0,72,0.00,,,0.00,Wunderground v.1.15,2013-01-23 23:45:00,
2013-01-23 18:50:00,17.7,10.2,30.21,NW,306,11.0,17.0,72,0.00,,,0.00,Wunderground v.1.15,2013-01-23 23:50:00,
2013-01-23 19:00:00,17.7,10.2,30.21,NW,317,10.0,10.0,72,0.00,,,0.00,Wunderground v.1.15,2013-01-24 00:00:00,
2013-01-23 19:05:00,17.7,10.5,30.20,NW,320,9.0,17.0,73,0.00,,,0.00,Wunderground v.1.15,2013-01-24 00:05:00,
2013-01-23 19:10:00,17.7,10.8,30.21,NNW,338,8.0,17.0,74,0.00,,,0.00,Wunderground v.1.15,2013-01-24 00:10:00,
2013-01-23 19:15:00,17.6,11.3,30.20,NNW,332,10.0,17.0,76,0.00,,,0.00,Wunderground v.1.15,2013-01-24 00:15:00,
2013-01-23 19:25:00,17.5,11.8,30.21,WNW,302,11.0,17.0,78,0.00,,,0.00,Wunderground v.1.15,2013-01-24 00:25:00,
2013-01-23 19:30:00,17.5,12.1,30.21,NW,307,11.0,17.0,79,0.00,,,0.00,Wunderground v.1.15,2013-01-24 00:30:00,
2013-01-23 19:35:00,17.5,12.4,30.21,NNW,332,10.0,17.0,80,0.00,,,0.00,Wunderground v.1.15,2013-01-24 00:35:00,
2013-01-23 19:45:00,17.4,12.8,30.20,NW,311,9.0,17.0,82,0.00,,,0.00,Wunderground v.1.15,2013-01-24 00:45:00,
2013-01-23 19:50:00,17.4,12.8,30.20,NW,311,10.0,10.0,82,0.00,,,0.00,Wunderground v.1.15,2013-01-24 00:50:00,
2013-01-23 19:55:00,17.4,12.8,30.20,NE,50,10.0,17.0,82,0.00,,,0.00,Wunderground v.1.15,2013-01-24 00:55:00,
2013-01-23 20:00:00,17.4,12.8,30.20,NNE,20,9.0,9.0,82,0.00,,,0.00,Wunderground v.1.15,2013-01-24 01:00:00,
2013-01-23 20:10:00,17.5,12.9,30.21,SSE,156,9.0,9.0,82,0.00,,,0.00,Wunderground v.1.15,2013-01-24 01:10:00,
2013-01-23 20:15:00,17.5,12.9,30.20,NNW,344,8.0,9.0,82,0.00,,,0.00,Wunderground v.1.15,2013-01-24 01:15:00,
2013-01-23 20:25:00,17.6,12.8,30.21,NNE,23,7.0,7.0,81,0.00,,,0.00,Wunderground v.1.15,2013-01-24 01:25:00,
2013-01-23 20:30:00,17.7,12.9,30.21,North,4,8.0,10.0,81,0.00,,,0.00,Wunderground v.1.15,2013-01-24 01:30:00,
2013-01-23 20:35:00,17.8,12.7,30.21,NNW,344,8.0,10.0,80,0.00,,,0.00,Wunderground v.1.15,2013-01-24 01:35:00,
2013-01-23 20:40:00,17.9,12.8,30.20,SSW,201,7.0,9.0,80,0.00,,,0.00,Wunderground v.1.15,2013-01-24 01:40:00,
2013-01-23 20:45:00,18.0,12.6,30.21,NNW,347,8.0,13.0,79,0.00,,,0.00,Wunderground v.1.15,2013-01-24 01:45:00,
2013-01-23 20:55:00,18.1,12.7,30.20,WNW,302,9.0,16.0,79,0.00,,,0.00,Wunderground v.1.15,2013-01-24 01:55:00,
2013-01-23 21:05:00,18.1,12.7,30.21,SE,145,13.0,13.0,79,0.00,,,0.00,Wunderground v.1.15,2013-01-24 02:05:00,
2013-01-23 21:10:00,18.2,12.8,30.21,NNE,30,13.0,13.0,79,0.00,,,0.00,Wunderground v.1.15,2013-01-24 02:10:00,
2013-01-23 21:15:00,18.2,12.8,30.21,East,79,14.0,14.0,79,0.00,,,0.00,Wunderground v.1.15,2013-01-24 02:15:00,
2013-01-23 21:20:00,18.2,12.8,30.21,ENE,68,14.0,18.0,79,0.00,,,0.00,Wunderground v.1.15,2013-01-24 02:20:00,
2013-01-23 21:25:00,18.3,12.9,30.22,SSW,201,13.0,18.0,79,0.00,,,0.00,Wunderground v.1.15,2013-01-24 02:25:00,
2013-01-23 21:30:00,18.3,12.9,30.22,South,169,14.0,14.0,79,0.00,,,0.00,Wunderground v.1.15,2013-01-24 02:30:00,
2013-01-23 21:40:00,18.4,13.0,30.22,NNW,330,13.0,13.0,79,0.00,,,0.00,Wunderground v.1.15,2013-01-24 02:40:00,
2013-01-23 21:45:00,18.4,13.0,30.22,North,350,13.0,17.0,79,0.00,,,0.00,Wunderground v.1.15,2013-01-24 02:45:00,
2013-01-23 21:50:00,18.3,12.9,30.22,SE,127,14.0,14.0,79,0.00,,,0.00,Wunderground v.1.15,2013-01-24 02:50:00,
2013-01-23 22:00:00,18.1,13.3,30.22,SSE,162,13.0,13.0,81,0.00,,,0.00,Wunderground v.1.15,2013-01-24 03:00:00,
2013-01-23 22:10:00,17.8,13.8,30.22,North,6,12.0,15.0,84,0.00,,,0.00,Wunderground v.1.15,2013-01-24 03:10:00,
2013-01-23 22:15:00,17.7,14.0,30.22,NNE,26,12.0,15.0,85,0.00,,,0.00,Wunderground v.1.15,2013-01-24 03:15:00,
2013-01-23 22:20:00,17.6,14.1,30.22,East,84,12.0,12.0,86,0.00,,,0.00,Wunderground v.1.15,2013-01-24 03:20:00,
2013-01-23 22:25:00,17.6,14.1,30.22,NE,50,11.0,12.0,86,0.00,,,0.00,Wunderground v.1.15,2013-01-24 03:25:00,
2013-01-23 22:30:00,17.5,14.3,30.22,NE,41,10.0,11.0,87,0.00,,,0.00,Wunderground v.1.15,2013-01-24 03:30:00,
2013-01-23 22:35:00,17.5,14.3,30.23,NNE,22,10.0,26.0,87,0.00,,,0.00,Wunderground v.1.15,2013-01-24 03:35:00,
2013-01-23 22:45:00,17.2,14.0,30.23,East,79,8.0,26.0,87,0.00,,,0.00,Wunderground v.1.15,2013-01-24 03:45:00,
2013-01-23 22:55:00,16.9,14.0,30.23,North,356,5.0,26.0,88,0.00,,,0.00,Wunderground v.1.15,2013-01-24 03:55:00,
2013-01-23 23:00:00,16.9,13.7,30.23,East,86,4.0,4.0,87,0.00,,,0.00,Wunderground v.1.15,2013-01-24 04:00:00,
2013-01-23 23:05:00,16.9,13.7,30.24,NE,43,2.0,26.0,87,0.00,,,0.00,Wunderground v.1.15,2013-01-24 04:05:00,
2013-01-23 23:10:00,16.8,13.6,30.24,NE,46,2.0,2.0,87,0.00,,,0.00,Wunderground v.1.15,2013-01-24 04:10:00,
2013-01-23 23:20:00,17.1,13.9,30.25,ESE,122,2.0,26.0,87,0.00,,,0.00,Wunderground v.1.15,2013-01-24 04:20:00,
2013-01-23 23:25:00,17.2,14.3,30.25,ESE,123,3.0,26.0,88,0.00,,,0.00,Wunderground v.1.15,2013-01-24 04:25:00,
2013-01-23 23:30:00,17.3,14.4,30.25,NE,34,3.0,26.0,88,0.00,,,0.00,Wunderground v.1.15,2013-01-24 04:30:00,
2013-01-23 23:35:00,17.3,14.6,30.25,NE,37,3.0,26.0,89,0.00,,,0.00,Wunderground v.1.15,2013-01-24 04:35:00,
2013-01-23 23:40:00,17.3,14.6,30.25,NE,50,4.0,26.0,89,0.00,,,0.00,Wunderground v.1.15,2013-01-24 04:40:00,
2013-01-23 23:50:00,17.5,14.8,30.26,ENE,70,4.0,26.0,89,0.00,,,0.00,Wunderground v.1.15,2013-01-24 04:50:00,